This is the latest recevied weather packets stored in our database for station/object VANOK. If no packets are shown the sender has not sent any weather packets the latest 10 day(s).
| Time | Temp. | Humidity | Pressure | Rain* | Wind** | Luminosity | Snow |
|---|---|---|---|---|---|---|---|
| 1777507616 | 4.44° C | 83% | 1024.6 hPa | - | - | - | - |
| 1777506417 | 4.44° C | 78% | 1024.6 hPa | - | - | - | - |
| 1777505216 | 4.44° C | 79% | 1024.8 hPa | - | - | - | - |
| 1777504015 | 4.44° C | 79% | 1024.9 hPa | - | - | - | - |
| 1777502816 | 4.44° C | 79% | 1025 hPa | - | - | - | - |
| 1777501616 | 4.44° C | 77% | 1025 hPa | - | - | - | - |
| 1777500416 | 4.44° C | 75% | 1025.1 hPa | - | - | - | - |
| 1777499215 | 4.44° C | 77% | 1025.1 hPa | - | - | - | - |
| 1777498015 | 4.44° C | 74% | 1025 hPa | - | - | - | - |
| 1777496815 | 4.44° C | 73% | 1025 hPa | - | - | - | - |
| 1777495616 | 5° C | 72% | 1024.9 hPa | - | - | - | - |
| 1777494415 | 5° C | 78% | 1025 hPa | - | - | - | - |
| 1777493215 | 4.44° C | 80% | 1025.1 hPa | - | - | - | - |
| 1777492015 | 4.44° C | 81% | 1025.2 hPa | - | - | - | - |
| 1777490815 | 4.44° C | 79% | 1025.1 hPa | - | - | - | - |
| 1777489615 | 4.44° C | 76% | 1025.3 hPa | - | - | - | - |
| 1777488415 | 4.44° C | 73% | 1025.3 hPa | - | - | - | - |
| 1777487215 | 4.44° C | 70% | 1025.4 hPa | - | - | - | - |
| 1777486015 | 4.44° C | 67% | 1025.5 hPa | - | - | - | - |
| 1777484814 | 5° C | 65% | 1025.6 hPa | - | - | - | - |
| 1777483614 | 4.44° C | 65% | 1025.8 hPa | - | - | - | - |
| 1777482414 | 5° C | 63% | 1025.9 hPa | - | - | - | - |
| 1777481214 | 5° C | 62% | 1026 hPa | - | - | - | - |
| 1777480014 | 5° C | 58% | 1026 hPa | - | - | - | - |
| 1777478813 | 5.56° C | 57% | 1026.1 hPa | - | - | - | - |
* Rain since midnight (hover to see other rain measurements)
** Current wind speed in m/s (hover to see current wind gust speed)